sat.trackr.live / text

‹ back to catalog

TIGER-6

NORAD 58272 · 2023-174S

PAYLOAD ACTIVE UNKNOWN

§ Identity

Operator
Country
RWA
Launch date
2023-11-11
Launch site
AFWTR
Launch vehicle
Mass (kg)
RCS (m²)

External: N2YO · Heavens-Above · Gunter

§ Orbital elements

Epoch: 2026-06-02T22:21:57.441312Z

Period
88.64 min
Inclination
97.3622°
Eccentricity
0.0013128
Mean motion
16.24469137 rev/d
Perigee alt
198.8 km
Apogee alt
216.1 km
Semi-major
6,585.6 km
B*
1.1405e-3
RAAN
253.7995°
Arg perigee
263.9798°
Mean anomaly
95.9997°
Rev number
14,413

§ Raw data

TIGER-61 58272U 23174S   26153.93191483  .03113610  24387-5  11405-2 0  99932 58272  97.3622 253.7995 0013128 263.9798  95.9997 16.24469137144138

JSON: /api/v1/satellites/58272 · /tle

For live sub-satellite position, see the globe view (requires WebGL).

§ Visibility from observer

Set your observer location to see the next 7 days of passes ≥ 10°. The values pass through the URL so the page stays shareable.

No JS? Fill the form by hand. The geolocation button needs JavaScript.